Theta_e
348 348 347 346 345 345 346 346 345 344 344 344 344 343 342 342 341 341 341 341 341 342 342 341 340 341 340 338 337 337 337 336 335 334 334 334 334 334 334 334 333 332
349 348 348 347 346 346 346 346 345 345 344 344 344 343 342 342 342 341 341 341 341 342 342 342 341 341 340 338 337 337 336 336 335 335 334 333 333 333 333 333 333 332
349 349 348 347 347 346 345 345 345 344 344 344 344 344 342 342 342 341 341 340 341 342 342 342 341 340 340 338 338 337 336 335 335 334 333 332 332 332 332 332 332 332
349 349 349 348 347 347 346 345 345 344 343 344 344 343 342 342 342 341 341 340 340 342 342 341 340 339 339 338 338 337 336 335 334 333 332 331 331 331 331 331 331 331
349 349 349 348 348 347 346 345 345 344 343 344 344 343 342 342 342 341 341 340 340 341 342 341 340 339 339 338 337 336 336 334 333 332 332 331 330 330 329 330 330 329
349 349 349 349 348 348 347 346 346 344 343 344 344 343 342 342 341 341 341 340 340 341 341 340 339 339 338 338 337 336 335 334 333 332 331 330 330 329 329 328 328 328
348 349 348 348 349 348 348 347 346 345 343 344 344 342 342 342 341 341 341 340 339 340 340 340 339 339 338 337 336 335 334 333 332 331 331 330 329 329 328 327 327 327
348 348 348 348 348 348 348 347 346 346 344 344 344 343 342 342 342 341 340 340 339 339 339 339 340 339 338 336 335 334 333 333 332 332 330 329 329 328 327 326 326 326
348 348 348 348 348 349 348 348 347 346 344 344 344 343 342 342 342 341 341 340 339 338 338 339 339 338 337 336 335 334 333 332 332 331 330 329 328 327 326 324 324 324
348 348 347 348 348 349 349 348 347 346 345 344 344 343 343 343 342 342 341 340 339 338 338 338 338 338 337 335 334 334 333 332 331 330 329 328 327 326 325 323 323 322
348 348 347 347 348 348 348 348 348 347 345 344 344 344 343 343 342 342 340 340 339 338 338 338 338 338 336 335 334 334 333 332 330 328 328 328 326 325 323 322 322 321
348 348 347 347 348 348 348 349 348 347 345 344 344 344 344 343 343 342 341 340 340 338 337 337 338 338 336 335 334 333 332 331 329 328 328 327 325 324 322 320 321 320
348 347 347 347 347 347 348 349 348 347 346 344 344 344 344 344 343 342 341 341 340 339 337 336 337 338 337 335 334 333 332 329 328 327 328 327 325 323 321 319 319 319
347 346 346 347 347 347 348 348 348 347 346 345 344 344 344 344 343 342 342 341 340 339 338 336 337 337 336 335 334 332 329 328 327 327 327 326 323 322 320 319 318 318
347 347 346 347 346 346 347 348 348 347 346 345 344 343 344 343 343 342 342 341 341 339 338 336 336 336 336 334 333 330 328 327 326 326 326 324 322 320 319 318 317 317
347 347 347 346 345 345 346 347 347 347 346 345 344 343 343 343 343 342 342 341 341 339 338 337 336 336 335 333 330 328 327 326 326 326 326 324 321 319 318 317 316 316
347 347 346 345 345 345 345 346 347 346 346 345 344 343 342 343 343 342 342 341 340 339 339 337 336 335 333 331 329 327 327 326 325 326 326 324 321 319 318 317 316 316
346 347 346 345 344 344 344 345 346 346 346 345 344 343 342 343 342 342 341 341 340 339 338 337 336 334 331 329 328 328 327 326 326 326 325 323 320 318 317 316 315 315
347 346 346 345 345 344 344 344 346 346 345 344 343 342 342 342 342 341 341 340 340 339 338 336 334 331 330 330 329 328 327 326 325 325 324 322 320 318 317 316 315 315
347 347 345 345 344 343 343 344 345 345 344 344 343 342 342 342 342 341 340 340 339 339 337 335 332 330 330 330 329 328 327 325 325 324 323 322 320 317 316 315 314 314
347 346 345 345 344 343 343 343 344 344 344 343 342 341 342 341 341 341 340 339 339 338 336 334 332 331 331 330 329 329 326 325 326 325 323 322 319 317 316 315 314 314
346 344 344 345 344 343 343 343 344 344 344 343 341 341 342 341 340 340 339 339 339 337 336 334 332 332 332 330 329 329 326 325 326 327 324 321 319 316 315 314 314 314
346 344 344 344 343 343 343 343 343 344 343 343 341 341 341 340 339 339 339 339 337 336 335 334 332 331 331 330 329 329 326 324 325 325 322 320 318 316 314 314 314 314
345 344 344 344 343 343 343 343 343 343 343 341 340 340 340 339 338 338 338 338 337 336 336 334 331 331 331 330 330 328 326 323 323 323 321 318 317 315 314 314 314 313
343 343 344 344 343 343 343 343 342 343 342 340 340 340 340 339 338 338 338 337 336 336 335 333 331 330 330 330 329 328 326 323 322 321 319 318 317 315 314 314 313 312
343 343 342 343 343 342 343 343 342 342 341 340 339 340 339 338 337 337 337 337 336 335 333 332 330 330 329 329 329 327 325 322 321 320 318 317 316 315 314 314 313 312
Wind_Speed
28 26 26 27 26 26 26 27 26 27 28 28 27 27 26 26 26 26 25 24 23 21 20 20 19 19 18 18 19 19 17 17 17 17 16 16 15 14 14 14 14 14
30 27 27 27 27 27 29 29 27 27 28 29 28 27 26 26 26 26 26 25 23 21 21 21 20 19 18 18 19 19 18 16 16 15 14 14 14 13 14 14 14 14
33 29 28 28 28 29 30 29 28 27 28 29 29 28 27 26 27 27 26 25 23 22 22 22 21 20 19 18 19 19 18 17 16 15 14 14 15 15 16 15 15 16
34 30 28 29 29 30 29 29 29 28 27 28 30 29 27 27 28 27 26 26 24 23 23 23 22 21 20 19 19 19 18 17 16 15 14 14 15 16 17 17 17 17
33 29 29 29 29 30 29 29 30 30 28 28 29 29 28 28 29 28 27 27 26 24 23 23 23 23 21 20 20 19 18 17 16 15 15 15 16 17 17 17 17 17
31 30 30 30 31 31 30 30 30 30 29 28 29 30 29 29 29 28 28 28 26 25 24 24 24 23 23 22 21 20 19 18 17 17 17 17 16 16 17 17 18 18
29 30 31 32 33 32 32 32 31 30 30 28 30 31 29 29 29 29 29 29 27 26 25 24 24 24 24 23 22 21 20 20 19 19 19 18 17 17 17 17 17 17
29 29 30 31 33 33 33 33 31 31 30 29 30 31 29 29 30 30 30 30 28 28 28 26 25 25 25 24 23 22 21 21 21 20 20 18 18 18 17 16 16 16
30 30 30 31 33 34 33 33 32 31 30 29 30 30 29 30 31 31 31 31 29 29 29 27 26 25 25 25 25 24 23 22 21 21 20 19 18 17 17 16 16 16
32 30 30 31 33 34 35 35 32 31 31 31 31 30 29 30 31 31 31 31 30 30 30 28 27 26 26 25 26 26 25 23 21 20 18 18 17 16 16 16 16 16
33 31 30 31 32 34 35 35 34 32 32 32 32 31 31 31 31 32 32 32 32 32 31 29 28 27 26 26 27 26 25 24 21 19 17 16 16 16 16 16 16 16
32 31 31 32 33 34 35 35 34 32 30 32 32 32 32 32 32 32 32 32 32 32 32 31 29 28 27 27 28 26 25 23 20 17 17 16 16 16 16 16 16 17
32 32 32 33 33 34 34 33 33 32 32 33 33 31 32 33 33 33 32 32 32 32 32 32 30 29 28 28 28 27 25 22 19 17 17 17 16 16 16 17 17 17
32 32 33 33 32 33 34 33 33 35 34 33 32 31 32 34 33 32 31 31 33 32 32 32 30 29 29 29 28 27 24 21 19 18 17 16 16 16 17 17 17 17
31 31 31 31 30 32 34 33 33 34 33 31 32 32 32 33 33 32 30 31 33 33 32 32 31 30 30 31 28 26 23 21 20 19 17 16 16 17 17 17 18 17
31 31 30 31 31 32 35 35 34 33 32 31 32 34 33 33 32 31 31 31 33 33 32 31 31 31 33 32 30 26 24 22 21 19 18 18 17 17 18 18 18 17
31 31 30 31 32 33 35 36 34 32 32 31 32 34 33 32 32 30 30 31 32 34 33 30 29 31 34 34 32 29 26 24 22 21 20 19 18 18 18 18 19 17
31 31 31 32 33 33 34 35 33 32 32 31 31 33 33 32 31 30 29 30 31 33 32 29 28 31 35 36 34 32 29 25 22 21 21 19 18 19 19 19 19 18
30 31 32 32 32 33 35 35 33 32 34 33 32 34 33 31 32 31 30 30 31 32 30 26 27 33 36 37 35 34 32 26 22 21 21 19 19 20 19 19 20 19
31 31 32 32 32 33 34 35 35 35 36 34 34 35 33 33 33 31 29 30 31 32 29 25 29 36 38 38 37 36 34 29 22 20 20 20 20 20 20 20 20 20
32 32 32 32 33 33 34 35 36 36 35 34 35 35 34 33 33 30 29 30 31 31 28 25 30 37 39 39 38 37 36 32 24 20 20 19 19 20 20 20 20 20
33 33 32 32 32 33 33 35 37 36 35 34 36 35 31 29 31 32 31 30 31 31 27 25 31 37 38 40 40 38 38 35 26 21 20 19 19 20 20 19 20 20
33 33 32 32 32 33 35 36 37 37 35 35 37 36 31 29 32 34 32 29 31 33 28 25 32 38 39 40 41 40 39 36 27 20 20 19 19 20 20 19 20 21
33 33 33 33 33 34 35 36 37 37 36 36 37 34 30 32 36 33 30 31 34 34 29 27 33 39 39 40 42 42 42 38 28 21 20 19 18 19 20 19 20 22
32 33 32 33 33 33 35 36 35 34 35 37 36 31 29 33 35 30 28 32 34 33 30 28 33 39 40 40 43 43 43 39 29 21 20 20 19 20 20 18 19 22
30 31 31 32 32 32 34 34 33 33 36 36 33 30 30 33 33 30 31 33 33 32 29 26 31 39 40 40 43 44 44 39 28 21 21 21 20 20 19 19 18 20
Wind_Direction
199 194 197 203 206 206 202 197 193 193 195 196 196 198 200 202 202 203 205 206 206 206 206 208 206 205 206 207 208 208 206 208 210 212 216 220 225 226 226 225 221 223
202 196 198 204 206 207 207 203 198 194 196 198 196 196 199 202 203 203 204 204 205 205 204 205 205 204 206 205 205 206 207 207 208 211 215 219 223 224 225 226 222 222
204 199 199 204 205 208 208 206 202 197 197 198 196 196 198 200 202 203 203 203 203 204 203 203 204 205 205 203 201 204 207 208 209 212 215 218 219 220 218 219 222 222
202 198 200 205 208 210 208 206 206 202 198 198 197 197 198 199 200 201 202 202 202 203 203 202 204 205 204 201 200 202 205 207 210 210 213 218 219 220 215 209 212 219
198 196 202 207 209 211 209 206 207 205 202 199 196 197 198 198 199 198 200 201 201 203 203 202 203 204 202 201 200 200 202 205 208 208 212 218 218 220 220 215 214 218
196 195 201 208 210 211 209 206 207 207 204 199 196 198 200 199 198 197 198 200 199 201 201 201 201 201 201 201 200 199 201 204 206 207 211 216 216 217 220 221 222 221
198 197 201 207 210 210 209 207 207 207 206 201 198 200 201 199 197 197 198 198 198 199 200 200 198 198 200 200 198 200 202 205 207 207 210 215 216 217 215 214 216 215
198 198 201 205 210 211 211 209 207 206 205 201 199 202 203 199 197 196 196 196 197 198 198 198 197 198 199 198 198 202 202 205 208 207 210 215 215 214 211 207 208 210
196 198 200 202 207 211 211 209 206 205 203 201 202 204 203 201 198 195 195 195 197 198 196 195 196 198 198 197 201 203 202 206 209 206 208 214 214 210 209 206 205 206
194 196 198 200 205 209 211 208 205 203 202 201 203 205 202 201 200 197 197 198 197 198 197 194 194 197 196 197 203 206 205 206 203 198 201 208 212 210 208 207 203 202
192 193 198 200 204 208 211 208 205 203 200 199 202 205 201 200 201 199 198 199 198 198 198 195 194 194 193 199 206 206 205 205 199 193 198 207 211 211 209 206 202 201
192 192 196 200 203 207 210 209 206 204 200 199 203 204 202 201 202 200 199 200 199 200 200 198 195 194 194 201 207 205 202 202 196 192 201 210 211 209 207 205 202 201
194 194 196 199 202 206 208 207 205 204 202 201 202 201 201 202 202 200 200 200 200 201 202 200 197 196 198 201 205 204 199 195 189 191 203 211 210 206 205 203 202 201
195 195 196 198 200 203 206 205 204 204 203 201 200 200 201 203 203 201 199 200 202 202 202 200 196 195 198 202 203 200 192 185 184 188 198 205 204 204 203 201 200 201
196 196 196 195 197 202 205 205 204 203 201 198 197 199 202 205 204 200 197 201 203 202 201 201 197 194 198 200 196 189 182 181 182 185 195 202 201 201 201 200 199 199
196 196 195 192 195 201 204 204 203 201 201 198 195 199 204 206 204 199 197 201 202 200 199 198 196 196 197 193 187 181 178 179 179 184 200 206 201 198 199 198 198 197
196 194 193 192 195 200 203 203 200 197 198 196 194 198 204 206 203 199 196 199 202 200 197 193 191 193 192 187 186 185 181 177 177 185 202 207 201 198 198 196 196 194
195 192 192 193 193 197 201 200 197 195 196 195 193 196 202 204 203 199 196 198 202 199 193 188 187 189 189 188 190 191 186 178 175 182 196 202 200 199 198 195 194 192
195 191 191 192 192 194 198 198 195 194 196 195 193 195 200 203 202 200 197 198 201 199 190 184 186 189 190 192 195 195 190 181 175 181 191 198 200 200 199 196 194 191
193 192 192 192 191 192 194 195 195 195 196 195 193 194 200 204 201 198 197 197 201 200 190 182 188 193 194 197 197 195 191 184 177 181 190 197 201 200 200 198 194 190
193 193 193 191 190 191 192 194 195 195 195 193 191 193 200 203 198 195 198 199 201 200 189 181 192 197 198 199 197 194 193 188 182 185 195 200 201 199 200 198 194 190
193 193 193 191 190 189 191 194 195 195 194 190 189 193 199 199 194 195 200 199 199 199 189 182 194 199 199 199 197 194 194 191 187 191 199 200 198 197 198 197 194 191
193 193 191 190 189 189 191 194 194 194 193 187 186 192 195 191 191 197 201 197 198 201 192 184 194 199 199 199 196 194 193 190 187 189 193 194 194 195 197 197 195 192
195 195 192 190 190 189 190 193 193 193 190 186 186 189 190 190 193 199 201 197 201 205 196 188 194 197 198 198 196 194 192 188 185 186 188 189 191 192 195 196 196 194
197 197 194 191 190 190 190 192 194 191 186 186 188 188 186 191 195 198 199 199 203 207 200 192 194 196 197 198 196 194 192 186 182 183 185 185 187 189 192 195 195 194
201 200 198 194 191 191 191 192 192 187 183 184 190 190 187 190 194 196 199 201 203 205 201 195 194 194 195 198 197 195 191 185 179 181 184 182 184 186 189 192 192 190